GW7456 Weather Reports


time (UTC)temp
C
wind
direction
speed
KPH
gust
KPH
rain 1hr
cm
rain 24hr
cm
rain mn
cm
humidity
%
barometer
mb
20260906225819 38 309 0.0 1.6 0.00 0.00 0.00 34 1010.9
20260906225317 38 208 3.2 4.8 0.00 0.00 0.00 33 1010.8
20260906224816 38 7 1.6 3.2 0.00 0.00 0.00 33 1010.8
20260906224250 38 10 0.0 0.0 0.00 0.00 0.00 33 1010.7
20260906223755 38 230 1.6 1.6 0.00 0.00 0.00 33 1010.7
20260906223230 38 253 0.0 0.0 0.00 0.00 0.00 34 1010.6
20260906222721 38 359 1.6 1.6 0.00 0.00 0.00 34 1010.9
20260906222152 38 232 0.0 1.6 0.00 0.00 0.00 33 1011.0
20260906221650 37 8 1.6 1.6 0.00 0.00 0.00 33 1010.8
20260906221148 38 35 3.2 4.8 0.00 0.00 0.00 33 1010.7
20260906220642 37 33 1.6 3.2 0.00 0.00 0.00 33 1010.8
20260906220140 37 141 4.8 6.4 0.00 0.00 0.00 34 1010.7
20260906215540 37 0 1.6 1.6 0.00 0.00 0.00 35 1010.7
20260906214959 38 166 3.2 4.8 0.00 0.00 0.00 34 1010.9
20260906214442 38 298 6.4 8.0 0.00 0.00 0.00 33 1010.6
20260906213955 37 348 0.0 1.6 0.00 0.00 0.00 34 1010.8
20260906213445 37 209 1.6 3.2 0.00 0.00 0.00 34 1010.7
20260906212855 37 279 0.0 1.6 0.00 0.00 0.00 34 1010.9
20260906212312 38 343 1.6 3.2 0.00 0.00 0.00 34 1010.9
20260906211810 37 30 1.6 3.2 0.00 0.00 0.00 34 1011.1
20260906211250 37 341 3.2 3.2 0.00 0.00 0.00 34 1011.1
20260906210742 38 14 4.8 6.4 0.00 0.00 0.00 33 1011.2
20260906210241 37 240 0.0 1.6 0.00 0.00 0.00 34 1011.3
20260906205740 37 53 3.2 6.4 0.00 0.00 0.00 34 1011.2
20260906205230 37 21 1.6 3.2 0.00 0.00 0.00 35 1011.4
20260906204722 37 20 3.2 4.8 0.00 0.00 0.00 34 1011.5
20260906204209 38 188 4.8 6.4 0.00 0.00 0.00 33 1011.7
20260906203640 38 20 1.6 1.6 0.00 0.00 0.00 33 1011.7
20260906203137 38 34 1.6 3.2 0.00 0.00 0.00 33 1011.8
20260906202630 37 258 3.2 3.2 0.00 0.00 0.00 33 1011.9
20260906202130 37 17 0.0 1.6 0.00 0.00 0.00 35 1011.9
20260906201630 37 280 0.0 1.6 0.00 0.00 0.00 35 1012.0
20260906201100 37 298 3.2 3.2 0.00 0.00 0.00 34 1012.0
20260906200540 37 263 1.6 3.2 0.00 0.00 0.00 34 1012.0
20260906200010 37 324 4.8 6.4 0.00 0.00 0.00 34 1012.2
20260906195508 37 185 3.2 3.2 0.00 0.00 0.00 33 1012.0
20260906194944 37 19 1.6 3.2 0.00 0.00 0.00 34 1012.2
20260906194440 37 356 1.6 3.2 0.00 0.00 0.00 35 1012.2
20260906193920 37 227 3.2 4.8 0.00 0.00 0.00 34 1012.2
20260906193419 37 233 3.2 4.8 0.00 0.00 0.00 34 1012.2
20260906192856 37 49 3.2 6.4 0.00 0.00 0.00 35 1012.5
20260906192340 36 329 3.2 3.2 0.00 0.00 0.00 34 1012.5
20260906191758 36 358 0.0 1.6 0.00 0.00 0.00 37 1012.7
20260906191240 36 239 4.8 4.8 0.00 0.00 0.00 36 1012.6
20260906190730 36 350 1.6 3.2 0.00 0.00 0.00 38 1012.6
20260906190140 36 338 3.2 4.8 0.00 0.00 0.00 37 1012.8
20260906185540 36 237 6.4 8.0 0.00 0.00 0.00 37 1012.9
20260906185036 36 353 1.6 3.2 0.00 0.00 0.00 38 1012.8
20260906184500 36 218 1.6 3.2 0.00 0.00 0.00 37 1012.9
20260906183940 36 169 6.4 8.0 0.00 0.00 0.00 37 1013.1
20260906183430 36 130 3.2 4.8 0.00 0.00 0.00 37 1012.9
20260906182840 36 31 3.2 3.2 0.00 0.00 0.00 38 1012.8
20260906182242 36 350 1.6 3.2 0.00 0.00 0.00 37 1013.0
20260906181740 36 182 4.8 6.4 0.00 0.00 0.00 36 1013.2
20260906181200 36 103 1.6 3.2 0.00 0.00 0.00 38 1013.2
20260906180640 36 223 4.8 4.8 0.00 0.00 0.00 37 1013.5
20260906180124 35 156 3.2 6.4 0.00 0.00 0.00 37 1013.6
20260906175605 35 190 3.2 4.8 0.00 0.00 0.00 37 1013.6
20260906175100 35 358 0.0 1.6 0.00 0.00 0.00 40 1013.7
20260906174540 35 243 6.4 9.7 0.00 0.00 0.00 39 1013.7
20260906174039 35 149 3.2 4.8 0.00 0.00 0.00 39 1013.9
20260906173530 35 311 3.2 3.2 0.00 0.00 0.00 39 1014.1
20260906173032 35 329 1.6 1.6 0.00 0.00 0.00 40 1014.0
20260906172500 34 261 4.8 4.8 0.00 0.00 0.00 40 1014.0
20260906171940 34 169 3.2 3.2 0.00 0.00 0.00 41 1014.0
20260906171420 34 0 1.6 3.2 0.00 0.00 0.00 43 1014.2
20260906170910 34 160 6.4 8.0 0.00 0.00 0.00 41 1014.2
20260906170344 34 11 0.0 1.6 0.00 0.00 0.00 43 1014.3
20260906165840 34 208 3.2 4.8 0.00 0.00 0.00 42 1014.4
20260906165330 33 20 0.0 1.6 0.00 0.00 0.00 42 1014.4
20260906164817 33 210 4.8 4.8 0.00 0.00 0.00 42 1014.4
20260906164302 33 5 1.6 3.2 0.00 0.00 0.00 43 1014.4
20260906163749 33 22 1.6 1.6 0.00 0.00 0.00 43 1014.4
20260906163240 33 88 1.6 3.2 0.00 0.00 0.00 45 1014.2
20260906162738 33 219 3.2 4.8 0.00 0.00 0.00 44 1014.2
20260906162225 33 256 4.8 8.0 0.00 0.00 0.00 43 1014.2
20260906161640 33 21 0.0 1.6 0.00 0.00 0.00 42 1014.2
20260906161146 32 285 1.6 3.2 0.00 0.00 0.00 43 1014.1
20260906160631 32 93 0.0 1.6 0.00 0.00 0.00 44 1014.0
20260906160040 32 155 3.2 4.8 0.00 0.00 0.00 43 1014.2
20260906155530 32 25 0.0 1.6 0.00 0.00 0.00 45 1013.9
20260906154940 32 177 3.2 4.8 0.00 0.00 0.00 44 1014.2
20260906154343 32 20 1.6 3.2 0.00 0.00 0.00 47 1014.0
20260906153855 31 84 1.6 3.2 0.00 0.00 0.00 47 1014.0
20260906153325 31 359 0.0 1.6 0.00 0.00 0.00 48 1014.0
20260906152820 31 8 1.6 3.2 0.00 0.00 0.00 48 1013.9
20260906152240 30 4 0.0 0.0 0.00 0.00 0.00 50 1013.9
20260906151750 30 69 0.0 0.0 0.00 0.00 0.00 52 1014.0
20260906151217 30 46 0.0 0.0 0.00 0.00 0.00 51 1014.3
20260906150704 30 39 0.0 0.0 0.00 0.00 0.00 53 1014.0
20260906150145 30 5 0.0 0.0 0.00 0.00 0.00 56 1014.0
20260906145640 29 33 0.0 0.0 0.00 0.00 0.00 57 1014.0
20260906145119 29 46 0.0 0.0 0.00 0.00 0.00 55 1014.0
20260906144600 28 41 0.0 0.0 0.00 0.00 0.00 56 1014.1
20260906144054 28 22 0.0 0.0 0.00 0.00 0.00 62 1014.0
20260906143607 28 47 0.0 1.6 0.00 0.00 0.00 62 1014.1
20260906143050 28 19 0.0 1.6 0.00 0.00 0.00 62 1014.2
20260906142544 28 37 0.0 0.0 0.00 0.00 0.00 64 1014.3
20260906142040 27 32 0.0 0.0 0.00 0.00 0.00 68 1014.3
20260906141538 27 36 0.0 1.6 0.00 0.00 0.00 69 1014.3
20260906141035 27 70 1.6 3.2 0.00 0.00 0.00 69 1014.3
20260906140532 27 43 0.0 0.0 0.00 0.00 0.00 71 1014.0
20260906140025 27 22 0.0 0.0 0.00 0.00 0.00 73 1014.2
20260906135441 26 27 0.0 0.0 0.00 0.00 0.00 76 1014.1
20260906134925 26 41 0.0 0.0 0.00 0.00 0.00 78 1014.2
20260906134347 26 42 0.0 0.0 0.00 0.00 0.00 81 1014.2
20260906133840 26 43 0.0 0.0 0.00 0.00 0.00 85 1014.0
20260906133248 26 44 0.0 0.0 0.00 0.00 0.00 86 1014.1
20260906132755 26 44 0.0 0.0 0.00 0.00 0.00 86 1014.0
20260906132230 25 44 0.0 0.0 0.00 0.00 0.00 87 1014.1
20260906131640 25 45 0.0 0.0 0.00 0.00 0.00 88 1014.2
20260906131131 25 45 0.0 0.0 0.00 0.00 0.00 89 1014.2
20260906130600 25 64 0.0 0.0 0.00 0.00 0.00 91 1014.1
20260906130040 25 64 0.0 0.0 0.00 0.00 0.00 92 1014.1
20260906125530 25 65 0.0 0.0 0.00 0.00 0.00 92 1014.2
20260906124946 25 65 0.0 0.0 0.00 0.00 0.00 93 1014.0
20260906124441 25 65 0.0 0.0 0.00 0.00 0.00 94 1014.0
20260906123936 25 65 0.0 0.0 0.00 0.00 0.00 94 1013.7
20260906123425 25 65 0.0 0.0 0.00 0.00 0.00 94 1013.9
20260906122844 25 65 0.0 0.0 0.00 0.00 0.00 94 1013.9
20260906122340 25 65 0.0 0.0 0.00 0.00 0.00 93 1013.7
20260906121817 25 65 0.0 0.0 0.00 0.00 0.00 93 1013.7
20260906121310 25 65 0.0 0.0 0.00 0.00 0.00 92 1013.7
20260906120755 25 65 0.0 0.0 0.00 0.00 0.00 92 1013.6
20260906120220 25 65 0.0 0.0 0.00 0.00 0.00 92 1013.6
20260906115713 25 65 0.0 0.0 0.00 0.00 0.00 92 1013.6
20260906115150 25 65 0.0 0.0 0.00 0.00 0.00 92 1013.5
20260906114640 25 65 0.0 0.0 0.00 0.00 0.00 92 1013.5
20260906114135 25 65 0.0 0.0 0.00 0.00 0.00 92 1013.4
20260906113617 25 65 0.0 0.0 0.00 0.00 0.00 91 1013.5
20260906113049 25 65 0.0 0.0 0.00 0.00 0.00 90 1013.4
20260906112555 25 65 0.0 0.0 0.00 0.00 0.00 90 1013.4
20260906112035 25 65 0.0 0.0 0.00 0.00 0.00 89 1013.2
20260906111520 26 65 0.0 0.0 0.00 0.00 0.00 88 1013.3
20260906110940 26 65 0.0 0.0 0.00 0.00 0.00 89 1013.3
20260906110430 26 49 0.0 0.0 0.00 0.00 0.00 89 1013.2
20260906105843 25 50 0.0 0.0 0.00 0.00 0.00 89 1013.1
20260906105340 25 49 0.0 0.0 0.00 0.00 0.00 91 1013.1
20260906104833 25 65 0.0 0.0 0.00 0.00 0.00 92 1012.9
20260906104345 25 66 0.0 0.0 0.00 0.00 0.00 92 1012.9
20260906103740 25 65 0.0 0.0 0.00 0.00 0.00 91 1012.9
20260906103230 25 65 0.0 0.0 0.00 0.00 0.00 91 1012.9
20260906102710 25 65 0.0 0.0 0.00 0.00 0.00 90 1013.0
20260906102140 25 65 0.0 0.0 0.00 0.00 0.00 90 1012.7
20260906101615 26 65 0.0 0.0 0.00 0.00 0.00 89 1012.8
20260906101049 26 65 0.0 0.0 0.00 0.00 0.00 88 1012.9
20260906100540 26 65 0.0 0.0 0.00 0.00 0.00 88 1012.9
20260906100032 26 65 0.0 0.0 0.00 0.00 0.00 88 1012.9
20260906095520 26 65 0.0 0.0 0.00 0.00 0.00 88 1012.8
20260906095001 26 65 0.0 0.0 0.00 0.00 0.00 88 1012.8
20260906094440 26 65 0.0 0.0 0.00 0.00 0.00 87 1012.6
20260906093850 26 65 0.0 0.0 0.00 0.00 0.00 86 1012.7
20260906093342 26 65 0.0 0.0 0.00 0.00 0.00 85 1012.7
20260906092855 26 65 0.0 0.0 0.00 0.00 0.00 85 1012.6
20260906092333 26 65 0.0 0.0 0.00 0.00 0.00 84 1012.3
20260906091827 26 65 0.0 0.0 0.00 0.00 0.00 83 1012.6
20260906091320 26 65 0.0 0.0 0.00 0.00 0.00 83 1012.3
20260906090825 26 66 0.0 0.0 0.00 0.00 0.00 83 1012.4
20260906090314 26 64 0.0 0.0 0.00 0.00 0.00 81 1012.5
20260906085751 26 64 0.0 0.0 0.00 0.00 0.00 81 1012.6
20260906085248 27 66 0.0 0.0 0.00 0.00 0.00 81 1012.5
20260906084747 27 354 0.0 1.6 0.00 0.00 0.00 80 1012.3
20260906084240 27 45 0.0 0.0 0.00 0.00 0.00 80 1012.4
20260906083730 27 45 0.0 0.0 0.00 0.00 0.00 80 1012.2
20260906083142 27 54 0.0 0.0 0.00 0.00 0.00 79 1012.3
20260906082640 27 42 0.0 0.0 0.00 0.00 0.00 79 1012.2
20260906082110 27 42 0.0 0.0 0.00 0.00 0.00 78 1012.4
20260906081606 27 55 0.0 0.0 0.00 0.00 0.00 78 1012.2
20260906081103 27 42 0.0 1.6 0.00 0.00 0.00 78 1012.2
20260906080600 27 40 0.0 0.0 0.00 0.00 0.00 77 1012.1
20260906080100 27 40 0.0 0.0 0.00 0.00 0.00 77 1012.4
20260906075540 27 3 0.0 0.0 0.00 0.00 0.00 77 1012.1
20260906075010 27 20 0.0 0.0 0.00 0.00 0.00 76 1012.2
20260906074510 27 49 0.0 0.0 0.00 0.00 0.00 76 1012.1
20260906073941 27 58 0.0 0.0 0.00 0.00 0.00 76 1012.1
20260906073447 27 58 0.0 0.0 0.00 0.00 0.00 75 1011.9
20260906072928 27 271 1.6 3.2 0.00 0.00 0.00 75 1012.1
20260906072417 27 58 0.0 0.0 0.00 0.00 0.00 75 1012.2
20260906071909 27 42 0.0 0.0 0.00 0.00 0.00 74 1012.0
20260906071345 27 144 1.6 3.2 0.00 0.00 0.00 74 1012.4
20260906070840 27 10 0.0 1.6 0.00 0.00 0.00 74 1012.4
20260906070321 27 31 0.0 0.0 0.00 0.00 0.00 73 1012.5
20260906065740 27 48 0.0 0.0 0.00 0.00 0.00 73 1012.7
20260906065226 27 67 0.0 1.6 0.00 0.00 0.00 72 1012.6
20260906064640 27 0 0.0 0.0 0.00 0.00 0.00 72 1012.6
20260906064046 27 192 1.6 3.2 0.00 0.00 0.00 72 1012.7
20260906063541 27 303 0.0 0.0 0.00 0.00 0.00 72 1012.6
20260906063033 27 62 0.0 0.0 0.00 0.00 0.00 72 1012.6
20260906062533 27 251 3.2 4.8 0.00 0.00 0.00 71 1012.6
20260906062005 28 167 3.2 4.8 0.00 0.00 0.00 71 1012.5
20260906061440 28 236 3.2 3.2 0.00 0.00 0.00 71 1012.7
20260906060913 28 43 0.0 0.0 0.00 0.00 0.00 71 1012.5
20260906060359 28 83 0.0 0.0 0.00 0.00 0.00 71 1012.3
20260906055840 28 61 0.0 0.0 0.00 0.00 0.00 71 1012.3
20260906055240 28 63 0.0 0.0 0.00 0.00 0.00 71 1012.5
20260906054651 28 69 1.6 3.2 0.00 0.00 0.00 70 1012.8
20260906054140 28 47 0.0 1.6 0.00 0.00 0.00 70 1012.6
20260906053601 28 7 0.0 1.6 0.00 0.00 0.00 70 1012.7
20260906053040 28 54 0.0 0.0 0.00 0.00 0.00 70 1012.7
20260906052545 28 66 0.0 1.6 0.00 0.00 0.00 71 1012.5
20260906052002 28 228 0.0 0.0 0.00 0.00 0.00 71 1012.5
20260906051500 28 228 0.0 0.0 0.00 0.00 0.00 70 1012.5
20260906050940 28 27 0.0 0.0 0.00 0.00 0.00 69 1012.5
20260906050445 28 41 0.0 0.0 0.00 0.00 0.00 69 1012.4
20260906045840 28 15 0.0 0.0 0.00 0.00 0.00 69 1012.6
20260906045244 28 39 0.0 0.0 0.00 0.00 0.00 68 1012.6
20260906044756 28 43 0.0 0.0 0.00 0.00 0.00 67 1012.5
20260906044217 28 32 0.0 0.0 0.00 0.00 0.00 67 1012.5
20260906043640 29 79 0.0 1.6 0.00 0.00 0.00 67 1012.6
20260906043129 29 350 0.0 1.6 0.00 0.00 0.00 66 1012.6
20260906042612 29 17 0.0 0.0 0.00 0.00 0.00 66 1012.5
20260906042100 29 135 1.6 1.6 0.00 0.00 0.00 66 1012.7
20260906041540 29 47 0.0 0.0 0.00 0.00 0.00 65 1012.4
20260906041029 29 115 0.0 1.6 0.00 0.00 0.00 65 1012.4
20260906040449 29 52 0.0 1.6 0.00 0.00 0.00 64 1012.6
20260906035940 29 128 3.2 4.8 0.00 0.00 0.00 64 1012.3
20260906035350 29 306 0.0 1.6 0.00 0.00 0.00 63 1012.5
20260906034840 29 85 0.0 1.6 0.00 0.00 0.00 63 1012.6
20260906034335 30 142 1.6 3.2 0.00 0.00 0.00 63 1012.6
20260906033755 30 27 0.0 1.6 0.00 0.00 0.00 62 1012.5
20260906033230 30 207 0.0 1.6 0.00 0.00 0.00 62 1012.5
20260906032720 30 168 0.0 3.2 0.00 0.00 0.00 62 1012.4
20260906032210 30 139 3.2 3.2 0.00 0.00 0.00 62 1012.7
20260906031648 30 117 1.6 1.6 0.00 0.00 0.00 61 1012.5
20260906031140 30 59 0.0 0.0 0.00 0.00 0.00 61 1012.5
20260906030632 30 116 0.0 1.6 0.00 0.00 0.00 61 1012.6
20260906030110 30 247 1.6 3.2 0.00 0.00 0.00 60 1012.4
20260906025545 30 158 3.2 4.8 0.00 0.00 0.00 60 1012.5
20260906025040 30 81 1.6 3.2 0.00 0.00 0.00 59 1012.7
20260906024540 30 246 1.6 3.2 0.00 0.00 0.00 59 1012.6
20260906024036 30 174 1.6 3.2 0.00 0.00 0.00 58 1012.4
20260906023520 30 142 1.6 3.2 0.00 0.00 0.00 58 1012.3
20260906023018 30 152 3.2 4.8 0.00 0.00 0.00 57 1012.1
20260906022454 30 172 0.0 3.2 0.00 0.00 0.00 57 1012.1
20260906022008 31 175 3.2 8.0 0.00 0.00 0.00 56 1012.0
20260906021441 31 140 3.2 3.2 0.00 0.00 0.00 55 1011.9
20260906020940 31 157 3.2 4.8 0.00 0.00 0.00 55 1011.8
20260906020415 31 304 1.6 1.6 0.00 0.00 0.00 54 1011.8
20260906015850 31 56 0.0 1.6 0.00 0.00 0.00 54 1011.7
20260906015340 31 120 4.8 8.0 0.00 0.00 0.00 53 1011.8
20260906014818 31 47 3.2 3.2 0.00 0.00 0.00 53 1011.6
20260906014310 31 105 3.2 4.8 0.00 0.00 0.00 53 1011.5
20260906013755 32 104 3.2 4.8 0.00 0.00 0.00 52 1011.4
20260906013230 32 41 0.0 1.6 0.00 0.00 0.00 51 1011.4
20260906012720 32 140 0.0 3.2 0.00 0.00 0.00 51 1011.4
20260906012210 32 153 3.2 4.8 0.00 0.00 0.00 51 1011.4
20260906011641 32 166 1.6 3.2 0.00 0.00 0.00 50 1011.4
20260906011120 33 29 1.6 1.6 0.00 0.00 0.00 49 1011.1
20260906010617 33 16 1.6 1.6 0.00 0.00 0.00 48 1011.0
20260906010040 34 30 1.6 4.8 0.00 0.00 0.00 45 1011.1
20260906005538 34 14 0.0 0.0 0.00 0.00 0.00 41 1010.7
20260906005020 34 16 0.0 0.0 0.00 0.00 0.00 41 1010.6
20260906004513 34 9 0.0 0.0 0.00 0.00 0.00 40 1010.6
20260906003940 35 23 0.0 0.0 0.00 0.00 0.00 39 1010.5
20260906003430 35 335 0.0 0.0 0.00 0.00 0.00 39 1010.8
20260906002903 35 19 0.0 0.0 0.00 0.00 0.00 39 1010.6
20260906002355 35 76 1.6 1.6 0.00 0.00 0.00 39 1010.7
20260906001818 35 188 1.6 3.2 0.00 0.00 0.00 39 1010.6
20260906001307 35 6 0.0 1.6 0.00 0.00 0.00 39 1010.6
20260906000754 35 33 0.0 0.0 0.00 0.00 0.00 39 1010.7
20260906000241 35 34 0.0 1.6 0.00 0.00 0.00 38 1010.4
20260905235720 35 151 3.2 3.2 0.00 0.00 0.00 38 1010.6
20260905235217 36 5 0.0 1.6 0.00 0.00 0.00 38 1010.5
20260905234650 36 327 0.0 1.6 0.00 0.00 0.00 37 1010.4
20260905234140 36 178 4.8 4.8 0.00 0.00 0.00 37 1010.6
20260905233618 36 345 0.0 0.0 0.00 0.00 0.00 37 1010.3
20260905233130 36 16 0.0 0.0 0.00 0.00 0.00 35 1010.4
20260905232540 36 275 1.6 1.6 0.00 0.00 0.00 35 1010.4
20260905232035 36 9 0.0 0.0 0.00 0.00 0.00 39 1010.5
20260905231522 37 31 0.0 0.0 0.00 0.00 0.00 37 1010.2
20260905231021 37 353 0.0 0.0 0.00 0.00 0.00 35 1010.5
20260905230443 37 63 0.0 1.6 0.00 0.00 0.00 34 1010.3